Het weer levert geen direct gevaar op.    Er zijn geen waarschuwingen afgegeven.

Onweer radar more information blitzortung!


Regen radar more information rain snow radar


Meteo Sauwerd

Weerstation Alkmaar Centrum

Weerstation Luyksgestel

Website Noardburgum



Select another period ( hide this area )

Eenheden Periode Custom range Directly to
Metrisch Engels Beide
Dagelijkse Wekelijkse Maandelijkse Jaarlijkse
use both date-selectors for a custom range
previous Dag
With this date

WeatherUnderground graphs for this period ( click here )



Warning: Division by zero in /home/tjeerqo264/domains/wsnoordbergum.nl/public_html/weather2/wu/WU-History4.php on line 835
Dagelijkse Samenvatting Zaterdag 18 augustus 2018
Tijd Temp. ( °C ) Dew pt. ( °C ) Wind ( km/h ) van Windvlaag ( km/h ) Luchtdruk ( hPa ) Humid.( % ) Rainrate ( cm ) Zonneschijn ( W/m2 )
Hoog14,4 12,0 7,9 ZZO ( 61/102 ) 11,3 1018,5 90 - 0
Gemiddeld13,6 11,7 1,8 Windstil #23/55 4,3 1018,2 88 - NAN #0/55
Laag13,3 11,5 -   0,0 1017,8 85 -  
Dagelijkse Tabular details for Zaterdag 18 augustus 2018
Tijd Temp. ( °C ) Dew pt. ( °C ) Wind ( km/h ) van Windvlaag ( km/h ) Luchtdruk ( hPa ) Humid.( % ) Rainrate ( cm ) Zonneschijn ( W/m2 )
00:04 14,4 11,9   Windstil   1018,5 85 - -
00:09 14,4 11,9   Windstil   1018,5 85 - -
00:14 14,3 11,8 3,2 Westen 3,2 1018,5 85 - -
00:19 14,3 12,0 3,2 Westen 3,2 1018,5 86 - -
00:24 14,2 11,9 1,4 Westen 3,2 1018,5 86 - -
00:29 14,2 11,9 3,2 Westen 4,8 1018,5 86 - -
00:34 14,1 11,8 1,4 Westen 3,2 1018,5 86 - -
00:39 14,1 11,8 1,4 Westen 3,2 1018,5 86 - -
00:44 14,1 11,8 1,4 Westen 4,8 1018,5 86 - -
00:49 14,0 11,9   Windstil 1,6 1018,5 87 - -
00:54 14,0 11,9   Windstil 1,6 1018,5 87 - -
00:59 13,9 11,8   Windstil 3,2 1018,5 87 - -
01:04 13,9 11,8 3,2 WZW 3,2 1018,5 87 - -
01:09 13,9 11,8   Windstil 1,6 1018,5 87 - -
01:14 13,9 11,8 4,7 WZW 4,8 1018,5 87 - -
01:19 13,8 11,7 3,2 ZZW 6,4 1018,5 87 - -
01:24 13,7 11,6   Windstil   1018,5 87 - -
01:29 13,7 11,7   Windstil   1018,2 88 - -
01:34 13,7 11,7   Windstil   1018,2 88 - -
01:39 13,6 11,6   Windstil   1018,2 88 - -
01:44 13,6 11,6   Windstil   1018,2 88 - -
01:49 13,6 11,6   Windstil 3,2 1018,2 88 - -
01:54 13,6 11,6   Windstil   1018,2 88 - -
01:59 13,5 11,6   Windstil   1018,2 88 - -
02:04 13,5 11,6   Windstil   1018,2 88 - -
02:09 13,4 11,5   Windstil 1,6 1018,2 88 - -
02:14 13,4 11,6   Windstil 1,6 1018,2 89 - -
02:19 13,4 11,6   Windstil 6,4 1018,2 89 - -
02:24 13,4 11,6   Windstil   1018,2 89 - -
02:29 13,4 11,6   Windstil 3,2 1018,2 89 - -
02:34 13,3 11,5 3,2 ZZO 4,8 1018,2 89 - -
02:39 13,3 11,5 1,4 ZZO 6,4 1018,2 89 - -
02:44 13,3 11,5 3,2 ZZO 8,0 1017,8 89 - -
02:49 13,3 11,5 4,7 ZZO 4,8 1018,2 89 - -
02:54 13,3 11,5 1,4 ZZO 4,8 1017,8 89 - -
02:59 13,3 11,5   Windstil 8,0 1017,8 89 - -
03:04 13,3 11,5 1,4 ZZO 4,8 1017,8 89 - -
03:09 13,3 11,5 6,4 ZZO 6,4 1017,8 89 - -
03:14 13,3 11,5 7,9 ZZO 8,0 1017,8 89 - -
03:19 13,3 11,7 1,4 ZZO 9,7 1017,8 90 - -
03:24 13,4 11,8 1,4 ZZO 4,8 1018,2 90 - -
03:29 13,4 11,8 3,2 ZZO 6,4 1017,8 90 - -
03:34 13,4 11,8 3,2 ZZO 6,4 1017,8 90 - -
03:39 13,4 11,8 3,2 ZZO 6,4 1017,8 90 - -
03:44 13,4 11,8   Windstil 8,0 1018,2 90 - -
03:49 13,4 11,8   Windstil 9,7 1018,2 90 - -
03:54 13,5 11,7 6,4 ZO 11,3 1018,2 89 - -
03:59 13,5 11,7 3,2 ZO 6,4 1018,2 89 - -
04:04 13,5 11,7 4,7 ZZO 6,4 1018,2 89 - -
04:09 13,5 11,7 1,4 ZZO 6,4 1018,2 89 - -
04:14 13,5 11,7 3,2 ZZO 4,8 1018,2 89 - -
04:19 13,5 11,7 3,2 ZZO 11,3 1017,8 89 - -
04:24 13,4 11,6 3,2 ZZO 6,4 1017,8 89 - -
04:29 13,5 11,7 3,2 ZZO 4,8 1017,8 89 - -
04:34 13,4 11,6 4,7 ZO 9,7 1017,8 89 - -
Dagelijkse Samenvatting Zaterdag 18 augustus 2018
Tijd Temp. ( °C ) Dew pt. ( °C ) Wind ( km/h ) van Windvlaag ( km/h ) Luchtdruk ( hPa ) Humid.( % ) Rainrate ( cm ) Zonneschijn ( W/m2 )
Hoog14,4 12,0 7,9 ZZO ( 61/102 ) 11,3 1018,5 90 - 0
Gemiddeld13,6 11,7 1,8 Windstil #23/55 4,3 1018,2 88 - NAN #0/55
Laag13,3 11,5 -   0,0 1017,8 85 -  
Dagelijkse Tabular details for Zaterdag 18 augustus 2018
Tijd Temp. ( °C ) Dew pt. ( °C ) Wind ( km/h ) van Windvlaag ( km/h ) Luchtdruk ( hPa ) Humid.( % ) Rainrate ( cm ) Zonneschijn ( W/m2 )
00:04 14,4 11,9   Windstil   1018,5 85 - -
00:09 14,4 11,9   Windstil   1018,5 85 - -
00:14 14,3 11,8 3,2 Westen 3,2 1018,5 85 - -
00:19 14,3 12,0 3,2 Westen 3,2 1018,5 86 - -
00:24 14,2 11,9 1,4 Westen 3,2 1018,5 86 - -
00:29 14,2 11,9 3,2 Westen 4,8 1018,5 86 - -
00:34 14,1 11,8 1,4 Westen 3,2 1018,5 86 - -
00:39 14,1 11,8 1,4 Westen 3,2 1018,5 86 - -
00:44 14,1 11,8 1,4 Westen 4,8 1018,5 86 - -
00:49 14,0 11,9   Windstil 1,6 1018,5 87 - -
00:54 14,0 11,9   Windstil 1,6 1018,5 87 - -
00:59 13,9 11,8   Windstil 3,2 1018,5 87 - -
01:04 13,9 11,8 3,2 WZW 3,2 1018,5 87 - -
01:09 13,9 11,8   Windstil 1,6 1018,5 87 - -
01:14 13,9 11,8 4,7 WZW 4,8 1018,5 87 - -
01:19 13,8 11,7 3,2 ZZW 6,4 1018,5 87 - -
01:24 13,7 11,6   Windstil   1018,5 87 - -
01:29 13,7 11,7   Windstil   1018,2 88 - -
01:34 13,7 11,7   Windstil   1018,2 88 - -
01:39 13,6 11,6   Windstil   1018,2 88 - -
01:44 13,6 11,6   Windstil   1018,2 88 - -
01:49 13,6 11,6   Windstil 3,2 1018,2 88 - -
01:54 13,6 11,6   Windstil   1018,2 88 - -
01:59 13,5 11,6   Windstil   1018,2 88 - -
02:04 13,5 11,6   Windstil   1018,2 88 - -
02:09 13,4 11,5   Windstil 1,6 1018,2 88 - -
02:14 13,4 11,6   Windstil 1,6 1018,2 89 - -
02:19 13,4 11,6   Windstil 6,4 1018,2 89 - -
02:24 13,4 11,6   Windstil   1018,2 89 - -
02:29 13,4 11,6   Windstil 3,2 1018,2 89 - -
02:34 13,3 11,5 3,2 ZZO 4,8 1018,2 89 - -
02:39 13,3 11,5 1,4 ZZO 6,4 1018,2 89 - -
02:44 13,3 11,5 3,2 ZZO 8,0 1017,8 89 - -
02:49 13,3 11,5 4,7 ZZO 4,8 1018,2 89 - -
02:54 13,3 11,5 1,4 ZZO 4,8 1017,8 89 - -
02:59 13,3 11,5   Windstil 8,0 1017,8 89 - -
03:04 13,3 11,5 1,4 ZZO 4,8 1017,8 89 - -
03:09 13,3 11,5 6,4 ZZO 6,4 1017,8 89 - -
03:14 13,3 11,5 7,9 ZZO 8,0 1017,8 89 - -
03:19 13,3 11,7 1,4 ZZO 9,7 1017,8 90 - -
03:24 13,4 11,8 1,4 ZZO 4,8 1018,2 90 - -
03:29 13,4 11,8 3,2 ZZO 6,4 1017,8 90 - -
03:34 13,4 11,8 3,2 ZZO 6,4 1017,8 90 - -
03:39 13,4 11,8 3,2 ZZO 6,4 1017,8 90 - -
03:44 13,4 11,8   Windstil 8,0 1018,2 90 - -
03:49 13,4 11,8   Windstil 9,7 1018,2 90 - -
03:54 13,5 11,7 6,4 ZO 11,3 1018,2 89 - -
03:59 13,5 11,7 3,2 ZO 6,4 1018,2 89 - -
04:04 13,5 11,7 4,7 ZZO 6,4 1018,2 89 - -
04:09 13,5 11,7 1,4 ZZO 6,4 1018,2 89 - -
04:14 13,5 11,7 3,2 ZZO 4,8 1018,2 89 - -
04:19 13,5 11,7 3,2 ZZO 11,3 1017,8 89 - -
04:24 13,4 11,6 3,2 ZZO 6,4 1017,8 89 - -
04:29 13,5 11,7 3,2 ZZO 4,8 1017,8 89 - -
04:34 13,4 11,6 4,7 ZO 9,7 1017,8 89 - -

Download your copy of this data-set  here

Our weather-data as stored at Weather Underground. Script ontwikkeld door Jim McMurry. Aangepast voor de template door Leuven-Template.eu

U vindt ons ook hier:

Het Weer Aktueel

UK Metoffice

European Weather Network

Weather Underground

AWEKAS

Citizen Weather Observer Program (CWOP)

HAMweather, WeatherForYou, PWS Weather

Apparatuur in gebruik:

Weerstation
Davis Vantage pro 2

Weerprogramma
Meteobridge

Weercomputer
TP-Link TL-WR703N

Webleverancier
Versio

Davis Vantage pro 2

Meteobridge

TP-Link TL-WR703N

Versio